This is the latest recevied weather packets stored in our database for station/object DO7ZT-13. If no packets are shown the sender has not sent any weather packets the latest 1 day(s).
| Time | Temp. | Humidity | Pressure | Rain* | Wind** | Luminosity | Snow |
|---|---|---|---|---|---|---|---|
| 1778057112 | 16.11° C | 71% | 1005.3 hPa | 0 mm | 1.79 m/s, 206° | - | - |
| 1778056837 | 16.11° C | 71% | 1005.3 hPa | 0 mm | 0.45 m/s, 257° | - | - |
| 1778056525 | 17.22° C | 71% | 1005.3 hPa | 0 mm | 1.34 m/s, 258° | - | - |
| 1778055925 | 16.11° C | 72% | 1005.2 hPa | 0 mm | 0.89 m/s, 135° | - | - |
| 1778055325 | 16.11° C | 72% | 1005.1 hPa | 0 mm | 0.89 m/s, 246° | - | - |
| 1778055012 | 16.11° C | 72% | 1005.1 hPa | 0 mm | 0.89 m/s, 187° | - | - |
| 1778054125 | 16.11° C | 74% | 1005.2 hPa | 0 mm | 0.45 m/s, 168° | - | - |
| 1778052925 | 16.11° C | 74% | 1005.4 hPa | 0 mm | 1.79 m/s, 204° | - | - |
| 1778052613 | 16.11° C | 74% | 1004.8 hPa | 0 mm | 2.24 m/s, 216° | - | - |
| 1778052325 | 16.11° C | 74% | 1004.8 hPa | 0 mm | 0.89 m/s, 245° | - | - |
| 1778051725 | 16.11° C | 76% | 1005.3 hPa | 0 mm | 0.89 m/s, 240° | - | - |
| 1778051413 | 16.11° C | 75% | 1005.3 hPa | 0 mm | 1.34 m/s, 181° | - | - |
| 1778050213 | 15° C | 79% | 1005.4 hPa | 0 mm | 1.34 m/s, 244° | - | - |
| 1778049025 | 13.89° C | 86% | 1005.3 hPa | 0 mm | 0.45 m/s, 313° | - | - |
| 1778048425 | 13.89° C | 86% | 1005.3 hPa | 0 mm | 0.89 m/s, 162° | - | - |
| 1778048113 | 12.78° C | 86% | 1005.1 hPa | 0 mm | 1.34 m/s, 191° | - | - |
| 1778047513 | 12.78° C | 86% | 1005.1 hPa | 0 mm | 1.34 m/s, 160° | - | - |
| 1778046913 | 12.78° C | 86% | 1005.1 hPa | 0 mm | 1.79 m/s, 168° | - | - |
| 1778046313 | 12.78° C | 89% | 1005.2 hPa | 0 mm | 1.79 m/s, 174° | - | - |
| 1778046025 | 12.22° C | 87% | 1005.2 hPa | 0 mm | 0.89 m/s, 134° | - | - |
| 1778044513 | 12.22° C | 91% | 1005.1 hPa | 0 mm | 0.89 m/s, 150° | - | - |
| 1778043913 | 12.22° C | 91% | 1005.1 hPa | 0 mm | 1.79 m/s, 156° | - | - |
| 1778043313 | 12.22° C | 91% | 1005 hPa | 0 mm | 0.89 m/s, 144° | - | - |
| 1778043025 | 12.22° C | 91% | 1005 hPa | 0 mm | 1.34 m/s, 150° | - | - |
| 1778042713 | 12.22° C | 92% | 1005 hPa | 0 mm | 1.34 m/s, 154° | - | - |
* Rain latest hour (hover to see other rain measurements)
** Current wind speed in m/s (hover to see current wind gust speed)